Voltar ao catálogo

THORAD AGENA D DEB

AtivoLEO
NORAD 5794·DEBRIS·🇺🇸 United States

Lançado Sep 30, 1969 de Vandenberg Space Force Base

Loading…

Próximas Passagens (próximas 24 horas)

TLE

AtualizadoSource: Space-Track

Época: Sep 13, 2026, 14:30 UTC

1  5794U 69082JW  26256.60438573  .00001779  00000-0  35187-3 0  9998
2  5794  69.9990  16.4951 0023088  46.5059 313.7996 14.63895622405334

Acompanhe THORAD AGENA D DEB em tempo real com AllMySat

Download on the App Store